CW5346 Weather Reports


Display with metric or nautical units.
time (UTC)temp
F
wind
direction
speed
MPH
gust
MPH
rain 1hr
in
rain 24hr
in
rain mn
in
humidity
%
barometer
mb
20260902111604 64 283 0.0 2.0 0.00 0.31 0.02 98 1020.1
20260902110624 64 284 0.0 0.0 0.00 0.32 0.02 98 1020.0
20260902105604 64 284 0.0 2.0 0.00 0.32 0.02 98 1019.9
20260902104604 64 284 0.0 0.0 0.00 0.33 0.02 98 1020.0
20260902103603 64 284 0.0 0.0 0.00 0.33 0.02 98 1020.0
20260902102604 64 284 0.0 0.0 0.00 0.33 0.02 98 1020.0
20260902101604 64 284 0.0 0.0 0.00 0.33 0.02 98 1019.8
20260902100603 64 284 0.0 0.0 0.00 0.33 0.02 98 1019.9
20260902095604 64 284 0.0 0.0 0.01 0.33 0.02 98 1019.7
20260902094604 64 284 0.0 0.0 0.01 0.33 0.02 98 1019.5
20260902093624 64 284 0.0 0.0 0.01 0.33 0.02 98 1019.4
20260902092604 64 284 0.0 0.0 0.00 0.32 0.01 98 1019.3
20260902091603 64 284 0.0 0.0 0.00 0.32 0.01 98 1019.3
20260902090604 64 284 0.0 0.0 0.00 0.32 0.01 98 1019.3
20260902085604 64 284 0.0 0.0 0.00 0.32 0.01 98 1019.3
20260902084603 64 284 0.0 0.0 0.00 0.32 0.01 98 1019.1
20260902083604 64 284 0.0 0.0 0.00 0.32 0.01 98 1019.2
20260902082603 64 284 0.0 0.0 0.00 0.32 0.01 98 1019.0
20260902081604 64 284 0.0 0.0 0.00 0.32 0.01 98 1019.0
20260902080603 64 284 0.0 0.0 0.00 0.32 0.01 98 1018.8
20260902074625 64 284 0.0 0.0 0.00 0.32 0.01 98 1018.7
20260902073604 64 284 0.0 0.0 0.00 0.32 0.01 98 1018.7
20260902072625 64 284 0.0 0.0 0.00 0.32 0.01 98 1018.7
20260902071603 65 284 0.0 0.0 0.00 0.32 0.01 98 1018.3
20260902070624 65 284 0.0 0.0 0.00 0.32 0.01 98 1018.1
20260902065604 65 284 0.0 0.0 0.01 0.32 0.01 98 1018.3
20260902064603 65 284 0.0 0.0 0.01 0.32 0.01 98 1018.4
20260902063625 65 284 0.0 0.0 0.01 0.32 0.01 98 1018.6
20260902062604 65 284 0.0 0.0 0.01 0.32 0.01 98 1018.8
20260902061603 65 284 0.0 0.0 0.01 0.32 0.01 98 1018.7
20260902060604 65 284 0.0 0.0 0.00 0.31 0.00 98 1018.9
20260902055603 65 284 0.0 0.0 0.00 0.31 0.00 98 1018.7
20260902054604 65 284 0.0 0.0 0.00 0.31 0.00 98 1018.8
20260902053603 65 284 0.0 0.0 0.00 0.31 0.00 98 1018.8
20260902052624 65 284 0.0 0.0 0.00 0.31 0.00 98 1018.9
20260902051603 65 284 0.0 0.0 0.00 0.32 0.00 98 1018.7
20260902050603 65 284 0.0 0.0 0.00 0.32 0.00 98 1018.8
20260902045625 65 284 0.0 0.0 0.00 0.32 0.00 98 1018.7
20260902044603 65 284 0.0 0.0 0.00 0.32 0.00 98 1018.7
20260902043603 65 284 0.0 0.0 0.00 0.32 0.00 98 1018.6
20260902042645 65 284 0.0 0.0 0.00 0.32 0.00 97 1018.4
20260902041603 65 284 0.0 3.0 0.00 0.42 0.00 98 1018.5
20260902040604 65 283 0.0 0.0 0.00 0.57 0.00 98 1018.6
20260902035624 65 283 0.0 3.0 0.00 0.60 0.58 98 1018.5
20260902034603 65 282 0.0 0.0 0.00 0.72 0.58 98 1018.2
20260902032603 65 282 0.0 0.0 0.00 0.77 0.58 97 1017.8
20260902031603 66 282 0.0 2.0 0.00 0.78 0.58 97 1017.6
20260902030603 66 282 0.0 4.0 0.00 0.78 0.58 97 1017.4
20260902025603 67 276 0.0 4.0 0.00 0.79 0.58 97 1017.5
20260902024603 67 277 0.0 6.0 0.00 0.79 0.58 98 1017.4
20260902023604 67 272 0.0 2.0 0.00 0.79 0.58 97 1017.2
20260902022603 67 271 0.0 3.0 0.00 0.79 0.58 97 1017.1
20260902021604 68 269 0.0 3.0 0.00 0.79 0.58 97 1016.8
20260902020603 68 268 0.0 6.0 0.00 0.79 0.58 97 1016.4
20260902015604 69 260 1.0 6.0 0.00 0.79 0.58 98 1016.4
20260902014624 69 251 0.0 0.0 0.00 0.79 0.58 98 1016.3
20260902013624 69 251 0.0 0.0 0.00 0.79 0.58 97 1016.5
20260902012603 69 251 0.0 2.0 0.00 0.79 0.58 97 1016.2
20260902011604 70 251 0.0 3.0 0.00 0.79 0.58 97 1016.3
20260902010603 70 246 2.0 6.0 0.00 0.79 0.58 97 1016.2
20260902005603 71 212 1.0 4.0 0.00 0.79 0.58 97 1015.6
20260902004603 72 206 0.0 4.0 0.00 0.79 0.58 97 1015.3
20260902003603 73 209 0.0 1.0 0.00 0.79 0.58 98 1015.5
20260902002624 73 209 0.0 2.0 0.00 0.79 0.58 98 1015.1
20260902001603 74 210 0.0 4.0 0.00 0.79 0.58 98 1015.0
20260902000625 74 214 0.0 0.0 0.00 0.79 0.58 98 1014.7
20260901235603 74 214 0.0 0.0 0.00 0.79 0.58 98 1014.5
20260901234625 74 214 0.0 0.0 0.00 0.79 0.58 98 1014.8
20260901233603 74 214 0.0 0.0 0.00 0.79 0.58 98 1014.6
20260901231603 75 214 0.0 0.0 0.00 0.79 0.58 98 1014.7
20260901230602 75 214 0.0 0.0 0.00 0.79 0.58 98 1014.5
20260901225624 75 214 0.0 0.0 0.08 0.79 0.58 98 1014.5
20260901224603 75 214 0.0 0.0 0.08 0.79 0.58 98 1014.4
20260901223625 75 214 0.0 0.0 0.05 0.76 0.55 98 1014.3
20260901222602 75 214 0.0 0.0 0.00 0.71 0.50 98 1013.7
20260901221624 75 214 0.0 0.0 0.00 0.71 0.50 98 1013.8
20260901220604 76 214 0.0 0.0 0.00 0.71 0.50 97 1014.2
20260901215645 76 214 0.0 0.0 0.01 0.71 0.50 98 1014.0
20260901214603 76 214 0.0 0.0 0.01 0.71 0.50 98 1014.2
20260901213624 76 214 0.0 0.0 0.01 0.71 0.50 98 1014.0
20260901212604 76 214 0.0 0.0 0.01 0.71 0.50 98 1014.1
20260901211604 76 214 0.0 0.0 0.01 0.71 0.50 98 1014.0
20260901210603 76 214 0.0 0.0 0.00 0.70 0.49 97 1014.2
20260901205603 76 214 0.0 0.0 0.07 0.70 0.49 96 1013.9
20260901204604 76 214 0.0 0.0 0.07 0.70 0.49 96 1014.0
20260901203603 77 214 0.0 3.0 0.03 0.66 0.45 96 1014.1
20260901202603 77 214 0.0 4.0 0.00 0.63 0.42 97 1014.1
20260901201603 77 212 0.0 1.0 0.00 0.63 0.42 97 1014.0
20260901200603 77 213 0.0 0.0 0.00 0.63 0.42 97 1014.1
20260901195603 77 213 0.0 0.0 0.00 0.63 0.42 97 1013.9
20260901194624 76 213 0.0 0.0 0.00 0.63 0.42 97 1014.0
20260901193646 76 213 0.0 0.0 0.00 0.63 0.42 97 1014.0
20260901192603 76 213 0.0 0.0 0.00 0.63 0.42 98 1014.0
20260901191603 76 213 0.0 2.0 0.00 0.63 0.42 98 1014.0
20260901190603 76 216 0.0 3.0 0.00 0.63 0.42 99 1014.0
20260901185645 76 215 0.0 2.0 0.00 0.63 0.42 99 1014.2
20260901184603 75 216 0.0 0.0 0.00 0.63 0.42 99 1014.3
20260901183603 75 216 0.0 0.0 0.00 0.63 0.42 99 1014.2
20260901182603 75 216 0.0 0.0 0.00 0.63 0.42 99 1014.1
20260901181602 75 216 0.0 5.0 0.00 0.63 0.42 99 1014.3
20260901180603 74 215 1.0 4.0 0.00 0.63 0.42 99 1014.2
20260901175603 74 216 0.0 0.0 0.00 0.63 0.42 99 1014.2
20260901174624 73 216 0.0 0.0 0.00 0.63 0.42 99 1014.3
20260901173603 73 216 0.0 0.0 0.00 0.63 0.42 99 1014.2
20260901172603 73 216 0.0 0.0 0.00 0.63 0.42 99 1014.2
20260901171603 72 216 0.0 0.0 0.00 0.63 0.42 99 1014.2
20260901170603 72 216 0.0 4.0 0.00 0.63 0.42 99 1014.5
20260901165603 72 216 0.0 0.0 0.01 0.62 0.41 99 1014.4
20260901164645 72 216 0.0 0.0 0.00 0.61 0.40 99 1015.3
20260901163603 72 216 0.0 0.0 0.00 0.61 0.40 99 1015.3
20260901162604 72 216 0.0 0.0 0.00 0.61 0.40 99 1015.2
20260901161603 71 216 0.0 0.0 0.00 0.61 0.40 99 1014.9
20260901160603 71 216 0.0 4.0 0.00 0.61 0.40 99 1014.7
20260901155603 71 216 0.0 0.0 0.03 0.61 0.40 99 1014.7
20260901154604 71 215 0.0 3.0 0.03 0.61 0.40 99 1015.1
20260901153603 71 216 0.0 0.0 0.03 0.61 0.40 99 1015.3
20260901152603 71 216 0.0 0.0 0.03 0.61 0.40 99 1015.6
20260901151623 71 216 0.0 0.0 0.02 0.60 0.39 99 1016.4
20260901150603 71 216 0.0 0.0 0.01 0.59 0.38 99 1016.4
20260901145624 71 216 0.0 0.0 0.06 0.57 0.36 99 1016.3
20260901144603 71 216 0.0 0.0 0.04 0.55 0.34 99 1016.1
20260901143602 71 216 0.0 0.0 0.03 0.54 0.33 99 1016.3
20260901142603 71 216 0.0 0.0 0.02 0.53 0.32 99 1016.1
20260901141602 71 216 0.0 0.0 0.01 0.52 0.31 99 1016.1
20260901140624 71 216 0.0 0.0 0.00 0.51 0.30 99 1016.3
20260901135603 71 216 0.0 0.0 0.00 0.51 0.30 99 1015.7
20260901134603 70 216 0.0 0.0 0.00 0.51 0.30 99 1015.6
20260901133624 70 216 0.0 0.0 0.00 0.51 0.30 99 1015.6
20260901132603 70 216 0.0 0.0 0.00 0.51 0.30 99 1015.7
20260901131603 70 216 0.0 0.0 0.00 0.51 0.30 99 1015.7
20260901130602 70 216 0.0 0.0 0.00 0.51 0.30 99 1015.7
20260901125624 70 216 0.0 0.0 0.00 0.51 0.30 99 1015.8
20260901124602 70 216 0.0 0.0 0.00 0.51 0.30 99 1016.1
20260901123603 70 216 0.0 0.0 0.00 0.51 0.30 99 1016.0
20260901122602 70 216 0.0 0.0 0.00 0.51 0.30 98 1015.8
20260901121624 70 216 0.0 0.0 0.00 0.51 0.30 98 1015.8
20260901120602 70 216 0.0 0.0 0.00 0.51 0.30 98 1015.6
20260901115603 70 216 0.0 0.0 0.02 0.51 0.30 98 1015.4
20260901114602 70 216 0.0 0.0 0.02 0.51 0.30 99 1015.5
20260901113603 69 216 0.0 0.0 0.02 0.51 0.30 99 1015.8
20260901112603 69 216 0.0 0.0 0.02 0.51 0.30 99 1016.0